[[{"header":{"parameterUnit":"m.s-1","parameterCategory":1,"la1":30.2991,"la2":30.254,"lo1":-89.0895,"lo2":-89.0444,"dy":0.0017,"dx":0.0017,"nx":28,"ny":28,"refTime":"2024-07-17T09:00:00:Z","depth":0,"parameterNumber":2,"parameterNumberName":"U-component_of_WINDS"},"data":[0,0,0,0,0,0,0,0,0,0,0,0,0,0,0,0,0,0,0,0,0,0,0,0,0,0,0,0,0,0,0,0,0,0,0,0,0,0,0,0,0,0,0,0,0,0,0,0,0,0,0,0,0,0,0,0,0,0,1.5032,1.5033,0,1.5148,1.5149,1.515,1.5197,1.5197,1.5197,1.5196,1.5312,1.5315,1.5319,0,0,0,0,0,0,0,0,0,0,0,0,0,1.4848,1.4851,1.5032,1.5033,1.5035,1.5147,1.5149,1.515,1.5197,1.5197,1.5196,1.5196,1.5311,1.5315,1.5319,0,0,0,0,0,0,0,0,0,0,0,0,0,1.4942,1.4852,1.5032,1.5072,1.5076,1.5147,1.5149,1.5151,1.5197,1.5197,1.5196,1.5196,1.531,1.5314,1.5319,1.5358,0,0,1.5335,1.5337,0,0,0,0,0,0,0,0,1.4937,1.4949,1.5064,1.5069,1.5075,1.5158,1.5127,1.522,1.5197,1.5151,1.5196,1.5196,1.5261,1.527,1.5292,1.5363,1.5368,1.5335,1.5338,1.534,1.5342,0,0,0,0,0,0,0,1.493,1.4944,1.5078,1.5066,1.5072,1.5083,1.5096,1.5144,1.5207,1.5155,1.5159,1.5172,1.5263,1.5287,1.5295,1.537,1.5335,1.5339,1.5342,1.5344,1.5477,1.5478,0,0,0,0,0,0,1.4917,1.4938,1.5074,1.5081,1.5003,1.5086,1.5101,1.5131,1.5206,1.5217,1.5172,1.5174,1.5279,1.5289,1.5299,1.5349,1.534,1.5345,1.5348,1.5477,1.5477,1.5478,0,0,0,0,0,0,1.4913,1.4929,1.5069,1.5011,1.5029,1.509,1.5124,1.5134,1.5158,1.5219,1.523,1.5185,1.5279,1.5292,1.5343,1.5354,1.5347,1.5352,1.5476,1.5477,1.5478,1.5448,0,0,0,0,0,0,1.4908,1.4927,1.4943,1.5011,1.5032,1.5112,1.5124,1.5136,1.5166,1.517,1.5235,1.5245,1.528,1.5335,1.5348,1.536,1.5356,1.5475,1.5476,1.5477,1.5449,1.5448,1.5448,0,0,0,0,0,1.4901,1.493,1.4944,1.496,1.5054,1.5112,1.5124,1.5165,1.5167,1.5183,1.5223,1.5243,1.535,1.534,1.5355,1.5369,1.5475,1.5476,1.5477,1.5449,1.5448,1.5448,0,0,0,0,0,0,1.4862,1.494,1.4956,1.5008,1.5053,1.512,1.5142,1.5163,1.5208,1.5209,1.5256,1.527,1.5316,1.5348,1.5335,1.5409,1.5414,1.5418,1.5387,1.5387,1.5387,1.5378,1.536,0,0,0,0,0,1.4859,1.4901,1.4967,1.5006,1.5028,1.5081,1.5108,1.5135,1.5183,1.5202,1.5245,1.5291,1.5335,1.5363,1.5407,1.5453,1.5468,1.547,1.5469,1.5469,1.5472,1.5498,1.55,1.5482,1.5482,1.5482,0,0,1.4854,1.4902,1.4926,1.4999,1.5038,1.5079,1.5097,1.514,1.517,1.5209,1.5259,1.5292,1.5346,1.5394,1.5418,1.5422,1.548,1.547,1.5469,1.5473,1.5499,1.5501,1.5502,1.5483,1.5483,1.5482,0,0,1.4866,1.4907,1.4944,1.4982,1.504,1.5075,1.5084,1.5147,1.5171,1.5222,1.5252,1.5288,1.5363,1.54,1.5428,1.5453,1.5473,1.5466,1.5463,1.5488,1.549,1.5491,1.5499,1.5502,1.5469,1.5469,1.5469,0,1.4853,1.4917,1.496,1.5002,1.5033,1.507,1.5107,1.5142,1.521,1.523,1.5234,1.5328,1.5367,1.5424,1.543,1.5452,1.5463,1.5459,1.5486,1.5488,1.549,1.5498,1.5501,1.5467,1.5468,1.5468,1.5468,0,1.4897,1.4941,1.4964,1.503,1.5064,1.5103,1.5151,1.5179,1.5203,1.5237,1.5288,1.5336,1.539,1.5405,1.5429,1.5465,1.5466,1.5477,1.5483,1.549,1.5498,1.5502,1.5466,1.5466,1.5467,1.5467,0,0,1.4889,1.4978,1.4986,1.5016,1.5082,1.5116,1.5156,1.5209,1.5233,1.5278,1.5312,1.5374,1.5385,1.5417,1.5445,1.5467,1.5482,1.5475,1.5477,1.5475,1.5525,1.5516,1.552,1.5496,1.5497,1.5497,1.5521,0,1.4909,1.4984,1.5024,1.5081,1.5122,1.5157,1.5192,1.5235,1.5267,1.5305,1.5341,1.5384,1.5395,1.5414,1.5438,1.5476,1.5493,1.5475,1.5527,1.5529,1.5513,1.5524,1.5515,1.5535,1.5524,1.5525,1.5525,0,1.4944,1.499,1.5052,1.5113,1.5131,1.5162,1.5213,1.525,1.5299,1.5321,1.5356,1.5384,1.5426,1.5428,1.5486,1.5472,1.5496,1.5518,1.552,1.5526,1.5528,1.5531,1.5542,1.5545,1.5531,1.5531,1.553,0,1.4931,1.5008,1.5055,1.508,1.5152,1.5173,1.5203,1.5253,1.5282,1.5326,1.5346,1.5394,1.5421,1.5457,1.5496,1.5494,1.555,1.5555,1.5569,1.5568,1.5579,1.5578,1.5594,1.5594,1.5594,1.5594,1.5594,0,1.495,1.4986,1.505,1.5079,1.512,1.5164,1.5203,1.5237,1.528,1.5315,1.5348,1.5379,1.5429,1.5467,1.5497,1.554,1.5552,1.557,1.5578,1.5568,1.5565,1.5584,1.5584,1.5595,1.5595,1.5595,1.5594,0,1.4943,1.4987,1.504,1.5104,1.5121,1.5149,1.5203,1.5231,1.5265,1.5309,1.5321,1.5374,1.542,1.5462,1.5523,1.5544,1.5587,1.5597,1.5571,1.5575,1.5586,1.5584,1.5615,1.5621,1.5616,1.5616,1.5616,0,1.4952,1.4981,1.5048,1.5074,1.5105,1.5146,1.5177,1.5221,1.525,1.5308,1.533,1.5378,1.5419,1.549,1.5533,1.558,1.5591,1.5599,1.5598,1.5586,1.5591,1.5589,1.5592,1.5598,1.5598,1.5598,1.5597,0,1.4964,1.4984,1.5027,1.5078,1.5113,1.5154,1.5197,1.5216,1.5268,1.5299,1.5347,1.5379,1.5441,1.5488,1.5539,1.557,1.5592,1.5597,1.5603,1.5592,1.5576,1.5585,1.5569,1.5596,1.5597,1.5597,1.5597,1.5597,1.4965,1.4992,1.5044,1.509,1.5127,1.5165,1.5195,1.5233,1.5274,1.5329,1.5352,1.54,1.5447,1.5518,1.5548,1.5586,1.5591,1.5599,1.5601,1.5602,1.56,1.557,1.5595,1.5595,1.5595,1.5596,1.5596,0,1.4979,1.5013,1.5056,1.5114,1.515,1.5169,1.5216,1.5245,1.5287,1.533,1.537,1.5424,1.547,1.5516,1.5564,1.5585,1.5596,1.5596,1.5595,1.5602,1.5593,1.5583,1.5586,1.5586,1.5586,1.5586,1.5586,1.5586,1.499,1.5037,1.5063,1.5127,1.5162,1.521,1.5235,1.5271,1.5305,1.5365,1.5403,1.5433,1.5477,1.5529,1.5571,1.5583,1.5599,1.5596,1.5611,1.5602,1.5603,1.5603,1.5594,1.5599,1.5599,1.5617,1.5617,1.5617]},{"header":{"parameterUnit":"m.s-1","parameterCategory":1,"la1":30.2991,"la2":30.254,"lo1":-89.0895,"lo2":-89.0444,"dy":0.0017,"dx":0.0017,"nx":28,"ny":28,"refTime":"2024-07-17T09:00:00:Z","depth":0,"parameterNumber":3,"parameterNumberName":"V-component_of_WINDS"},"data":[0,0,0,0,0,0,0,0,0,0,0,0,0,0,0,0,0,0,0,0,0,0,0,0,0,0,0,0,0,0,0,0,0,0,0,0,0,0,0,0,0,0,0,0,0,0,0,0,0,0,0,0,0,0,0,0,0,0,3.8681,3.8683,0,3.88,3.8801,3.8803,3.8819,3.8817,3.8816,3.8815,3.8931,3.8935,3.8939,0,0,0,0,0,0,0,0,0,0,0,0,0,3.8463,3.8467,3.8681,3.8683,3.8684,3.88,3.8801,3.8803,3.8819,3.8817,3.8816,3.8815,3.8929,3.8934,3.8939,0,0,0,0,0,0,0,0,0,0,0,0,0,3.8567,3.8468,3.8681,3.8706,3.871,3.8799,3.8801,3.8803,3.8819,3.8817,3.8816,3.8814,3.8928,3.8934,3.894,3.9011,0,0,3.8959,3.8961,0,0,0,0,0,0,0,0,3.8561,3.8575,3.8701,3.8705,3.8709,3.8793,3.8767,3.8873,3.8819,3.8777,3.8815,3.8813,3.8886,3.8895,3.8921,3.9017,3.9021,3.8959,3.8963,3.8966,3.8967,0,0,0,0,0,0,0,3.8554,3.857,3.8728,3.8703,3.8707,3.871,3.8723,3.8787,3.8839,3.8781,3.8782,3.8796,3.8888,3.8915,3.8924,3.9023,3.8959,3.8965,3.8968,3.8971,3.9183,3.9185,0,0,0,0,0,0,3.8543,3.8564,3.8724,3.8732,3.8629,3.8715,3.8729,3.8767,3.8839,3.8848,3.8798,3.8797,3.8905,3.8917,3.8928,3.9017,3.8966,3.8971,3.8975,3.9182,3.9184,3.9186,0,0,0,0,0,0,3.8538,3.8557,3.8719,3.8648,3.8669,3.8721,3.8763,3.8771,3.8798,3.8852,3.886,3.8817,3.8905,3.8919,3.8991,3.9021,3.8974,3.898,3.9179,3.9182,3.9185,3.9194,0,0,0,0,0,0,3.8532,3.8555,3.8584,3.8649,3.8673,3.8782,3.8765,3.8774,3.881,3.8809,3.8872,3.888,3.8904,3.8982,3.8997,3.9029,3.8985,3.9177,3.9181,3.9184,3.9192,3.9197,3.9202,0,0,0,0,0,3.8524,3.858,3.8585,3.8605,3.871,3.8784,3.8797,3.8826,3.8812,3.8841,3.8875,3.8878,3.9015,3.8989,3.9006,3.904,3.9175,3.9179,3.9184,3.9189,3.9196,3.9202,0,0,0,0,0,0,3.8515,3.8589,3.8596,3.8675,3.8723,3.8786,3.8823,3.8832,3.8883,3.8881,3.8912,3.8926,3.8996,3.9025,3.8994,3.9113,3.9094,3.9102,3.9092,3.9099,3.9104,3.9096,3.899,0,0,0,0,0,3.8523,3.8579,3.8639,3.8704,3.8728,3.8771,3.8804,3.8822,3.8873,3.8892,3.8932,3.8979,3.9033,3.9067,3.9119,3.9196,3.9209,3.9228,3.9233,3.9237,3.9244,3.9287,3.9295,3.92,3.92,3.92,0,0,3.8539,3.8586,3.8619,3.8703,3.8743,3.8798,3.8788,3.8847,3.8888,3.8901,3.8972,3.9002,3.9056,3.9131,3.9166,3.9157,3.9273,3.9243,3.9245,3.925,3.9292,3.9301,3.9309,3.9203,3.9203,3.9202,0,0,3.8596,3.8638,3.8697,3.8737,3.8798,3.8827,3.884,3.8903,3.8924,3.8996,3.9007,3.9055,3.9147,3.9186,3.9217,3.929,3.9295,3.9306,3.9334,3.9375,3.9383,3.939,3.9416,3.9425,3.9313,3.9313,3.9313,0,3.8608,3.8694,3.8725,3.8784,3.8821,3.8837,3.8896,3.8933,3.9006,3.9031,3.902,3.9137,3.9175,3.9259,3.9277,3.9302,3.9318,3.9299,3.938,3.9387,3.9393,3.9419,3.9429,3.9314,3.9314,3.9313,3.9313,0,3.8705,3.8764,3.8804,3.8878,3.8918,3.8977,3.9016,3.9053,3.9067,3.9097,3.9169,3.9216,3.9278,3.9299,3.9312,3.9385,3.9378,3.9374,3.9355,3.9403,3.9428,3.9438,3.9315,3.9315,3.9314,3.9314,0,0,3.876,3.8852,3.8866,3.89,3.8968,3.9014,3.9072,3.9136,3.9167,3.9217,3.9267,3.9344,3.9341,3.9377,3.9395,3.9431,3.9487,3.9422,3.9424,3.9433,3.957,3.9574,3.9585,3.9491,3.9493,3.9494,3.9566,0,3.8826,3.8934,3.8965,3.9055,3.911,3.9126,3.9177,3.9224,3.9253,3.9302,3.9333,3.9389,3.938,3.9402,3.9438,3.9472,3.9515,3.9467,3.9536,3.9538,3.9523,3.9597,3.9601,3.9667,3.9575,3.9577,3.9578,0,3.8918,3.8972,3.9069,3.9132,3.9156,3.9201,3.9262,3.9309,3.9362,3.9381,3.9422,3.9437,3.9497,3.9475,3.9558,3.9526,3.9555,3.9576,3.9579,3.9587,3.9561,3.9607,3.9688,3.9698,3.9594,3.9592,3.9591,0,3.8949,3.9046,3.9117,3.9146,3.922,3.9252,3.9284,3.9335,3.9372,3.9424,3.9448,3.9505,3.9537,3.958,3.961,3.9591,3.9691,3.9671,3.9708,3.9707,3.9728,3.9726,3.9815,3.9746,3.9746,3.9746,3.9746,0,3.902,3.9078,3.9133,3.9176,3.9242,3.9275,3.9339,3.9371,3.9417,3.9466,3.9483,3.9528,3.9564,3.9614,3.9637,3.9703,3.9717,3.9733,3.9739,3.9732,3.973,3.9752,3.9748,3.9749,3.9748,3.9748,3.9747,0,3.9066,3.9105,3.9183,3.9248,3.9266,3.9311,3.9366,3.9408,3.9438,3.95,3.9516,3.9562,3.9622,3.9656,3.973,3.9746,3.9819,3.9822,3.9802,3.9805,3.9839,3.9836,3.9946,3.9962,3.9882,3.9882,3.9883,0,3.9109,3.9155,3.9225,3.9261,3.9294,3.935,3.9388,3.9422,3.946,3.9524,3.9558,3.962,3.967,3.9764,3.9804,3.9861,3.9865,3.99,3.9874,3.9866,3.9867,3.9864,3.9869,3.9904,3.9905,3.9906,3.9906,0,3.9181,3.9198,3.9254,3.9316,3.9361,3.9411,3.946,3.9487,3.9529,3.9571,3.9634,3.9674,3.9751,3.9811,3.9871,3.9902,3.9911,3.9914,3.9926,3.992,3.9906,3.9915,3.9815,3.9911,3.9911,3.9911,3.991,3.991,3.9228,3.9269,3.9326,3.9387,3.9428,3.9474,3.9517,3.9554,3.9607,3.9674,3.969,3.9756,3.9807,3.989,3.9923,3.9973,3.9967,3.9984,3.9988,3.9992,3.9993,3.9898,3.9984,3.9984,3.9984,3.9984,3.9984,0,3.9301,3.9339,3.9394,3.9464,3.9512,3.9518,3.9573,3.9612,3.9671,3.9719,3.9769,3.9841,3.99,3.9944,4.0004,4.0036,4.0042,4.0051,4.0049,4.0056,3.9995,3.9979,4.0045,4.0045,4.0045,4.0045,4.0045,4.0045,3.9345,3.9417,3.9441,3.9533,3.9569,3.9636,3.9667,3.9709,3.9748,3.9828,3.9878,3.9907,3.9954,4.0017,4.0071,4.0082,4.0104,4.0112,4.0124,4.0066,4.006,4.0054,4.0039,4.0116,4.0117,4.0181,4.0181,4.0182]}]]